STARLINK-30846, 58210

Orbit data source: Space-Track

STARLINK-30846, 58210 is a payload satellite owned by SpaceX/Seattle (US) in LEO that was launched on Fri, 03 Nov 2023 UTC via an FALCON 9 launch vehicle from the Air Force Eastern Test Range (AFETR). Payload-class satellites include a variety of spacecraft equipped with specific instruments for various scientific and technological missions. These include communications satellites like Starlink; space stations such as the ISS; scientific satellites like the Hubble; Earth observation satellites from companies like Planet Labs, Umbra, and HawkEye 360; GPS; miniature CubeSats for education and research; and military/defense satellites.

Loading next visibility...
Identifier
58210, 2023-170E
Orbit
LEO
Country
Flag of USUS
Related business
Manufacturer
SpaceX/Seattle
Mission
Operational Commercial Communications
Bus & Motor
STARLINK V2M, Unknown motor
Mass
730 kg wet, ~700 kg dry
Launch date (UTC)
2023-11-03 (3 years ago)
Launch vehicle
FALCON 9
Launch site
Air Force Eastern Test Range (AFETR)
Object type
Payload
Rocket body
Debris
Shape & HBR
Box + 2 Pan, 17.7 m
Radar Cross Section
33.884 m², Large (>1 m²)

Expand to show TLE details & history
Last TLE update: 2 days ago

TLE from 2 days ago
0 STARLINK-30846
1 58210U 23170E   26171.47547965  .00000155  00000-0  15156-4 0  9996
2 58210  43.0023 334.2267 0000789 274.5219  85.5542 15.27572617146015
Epoch: 2026-06-20T11:24Z
TLE epoch observation values (Epoch: 2026-06-20T11:24:41.441Z)
Latitude
-0.00007°
Longitude
-105.63561°
Altitude
482.805 km
Speed
7.626 km/s
True Right ascension
22h 16m 54s
True Declination
0° 00' 00"
Sunlit
Object was in full shadow at epoch
Visualization orbit readout
Latitude
Unknown
Longitude
Unknown
Altitude
Unknown
Speed
Unknown
Apparent Right ascension
Unknown
Apparent Declination
Unknown
Sunlit
N/A
Visualization observer readout
Local Sidereal Time
23:19:57
Azimuth
Unknown
Elevation
Unknown
Doppler factor
Unknown
Orbital elements
Apogee altitude
485.557 km
Perigee altitude
484.474 km
Semi-major axis
6,863.153 km
Eccentricity
0.00008
Inclination
43.0023°
RAAN
334.2267°
Arg. of periapsis
274.5219°
True anomaly
85.56321°
Mean anomaly
85.5542°
Eccentric anomaly
85.55871°
Mean motion
3.81731 °/min
Orbital period
94.31 mins
BSTAR
0.000015156
Loading maneuver chart data...
Computing Atmospheric mass density...
Loading historical data...
Loading historical data...
Loading historical data...
Loading historical data...
Loading historical data...
Loading historical data...
Loading historical data...

Documentation

Showing up to 5 results
|